Regional Weather Roundup
Issued by NWS

Home | Current Version | Previous Version | Graphics & Text | Print | Product List | Glossary On
Versions: 1 2 3 4 5 6 7 8 9 10 11 12 13 14 15 16 17 18 19 20 21 22 23 24 25 26 27 28 29 30 31 32 33 34 35 36 37 38 39 40 41 42 43 44 45 46 47 48 49 50
000
ASUS43 KLSX 291559
RWRMO

WEATHER SUMMARY FOR MISSOURI
NATIONAL WEATHER SERVICE SPRINGFIELD MO
1100 AM CDT FRI MAY 29 2015

NOTE: "FAIR" INDICATES FEW OR NO CLOUDS BELOW 12,000 FEET WITH NO
       SIGNIFICANT WEATHER AND/OR OBSTRUCTIONS TO VISIBILITY.
       CURRENT SKY AND/OR WEATHER CONDITIONS ARE NOT AVAILABLE FOR
       CHILLICOTHE AND FARMINGTON.

MOZ001>031-035>038-043-044-053-054-291700-
...NORTHERN AND WESTERN MISSOURI...

CITY           SKY/WX    TMP DP  RH WIND       PRES   REMARKS
KANSAS CTY INT CLOUDY    68  64  87 S9        29.99R
KANSAS C DTWN  CLOUDY    71  63  75 SW9       29.98S
LEE`S SUMMIT   CLOUDY    70  63  78 S10       29.99F
ST JOSEPH      RAIN      65  63  93 S10       29.99R FOG
CHILLICOTHE      N/A     73  67  81 S7        30.00R
KIRKSVILLE     CLOUDY    72  68  88 SW8       30.00S

$$
MOZ066>068-077>081-088>096-101>105-291700-
...SOUTHWEST MISSOURI...

CITY           SKY/WX    TMP DP  RH WIND       PRES   REMARKS
SPRINGFIELD    LGT RAIN  68  65  90 CALM      30.07S
JOPLIN         CLOUDY    68  66  93 E8        30.05F

$$
MOZ032>034-039>042-045>050-055>058-069>072-291700-
...CENTRAL MISSOURI...

CITY           SKY/WX    TMP DP  RH WIND       PRES   REMARKS
COLUMBIA       CLOUDY    71  66  84 SW7       30.03S
JEFFERSON CITY CLOUDY    71  65  81 VRB6      30.04R
ROLLA          CLOUDY    71  66  84 SW7       30.06R
SEDALIA        CLOUDY    70  64  81 SW9       30.01F
OSAGE BEACH    PTSUNNY   72  64  78 S5        30.05R

$$
MOZ051-052-059>065-291700-
...EAST CENTRAL MISSOURI...

CITY           SKY/WX    TMP DP  RH WIND       PRES   REMARKS
ST LOUIS INTL  MOSUNNY   82  66  58 SW8G20    30.04F
SPIRIT OF STL  PTSUNNY   80  68  66 W10       30.02F
ST CHARLES     PTSUNNY   80  69  69 S9        30.03S

$$
MOZ072>076-082>087-097>100-106>115-291700-
...SOUTH CENTRAL AND SOUTHEAST MISSOURI...

CITY           SKY/WX    TMP DP  RH WIND       PRES   REMARKS
CAPE GIRARDEAU PTSUNNY   79  70  74 S8        30.08F
FARMINGTON     CLOUDY    77  68  73 S9        30.11S
POPLAR BLUFF   MOSUNNY   80  69  69 VRB6      30.07S
WEST PLAINS    CLOUDY    78  67  68 S7        30.09R

$$


USA.gov is the U.S. government's official web portal to all federal, state and local government web resources and services.